Flag for Germany Weather past 2 weeks in Winsen (Luhe), Lower Saxony, Germany

Now
54 °F

Passing clouds.


Feels Like: 53 °F
Forecast: 60 / 83 °F
Wind: 3 mph from South

Location: Hamburg-Fuhlsbuettel

Current Time: Aug 29, 2015 at 8:52:06 AM

Latest Report: Aug 29, 2015 at 7:50 AM


Visibility: N/A

Pressure: 30.21 "Hg

Humidity: 100%

Dew point: 54 °F

Location of Winsen (Luhe)Location

Historic Weather in Winsen (Luhe) — Graph

°F

Winsen (Luhe) temperature yesterday

Maximum temperature yesterday: 68 °F (at 4:50 PM)
Minimum temperature yesterday: 55 °F (at 4:20 AM)
Average temperature yesterday: 60 °F

Past Weeks' High & Low Weather Summary

 TemperatureHumidityPressure
High84 °F (Aug 14, 5:20 PM)100% (Aug 15, 7:20 AM)30.30 "Hg (Aug 15, 7:20 AM)
Low50 °F (Aug 29, 3:50 AM)30% (Aug 22, 12:50 PM)29.59 "Hg (Aug 24, 7:20 PM)
Average65 °F79%29.94 "Hg
* Reported Aug 14 7:20 AM — Aug 29 7:20 AM, Winsen (Luhe), Weather by CustomWeather, © 2015

Note: Actual official high and low records may vary slightly from our data, if they occured in-between our weather recording intervals... More about our weather records

Advertising

Winsen (Luhe) weather history for previous 24 hours

 ConditionsComfort  
Time TempWeatherWind HumidityBarometerVisibility
7:20 AM
Sat, Aug 29
50 °FFog.3 mph100%30.21 "HgN/A
6:50 AM52 °FCool.2 mph100%30.21 "HgN/A
6:20 AM50 °FFog.1 mph100%30.18 "Hg0 mi
5:50 AM52 °FCool.1 mph100%30.18 "HgN/A
5:20 AM50 °FCool.2 mph100%30.18 "HgN/A
4:50 AM50 °FCool.1 mph100%30.18 "HgN/A
4:20 AM52 °FCool.2 mph100%30.18 "HgN/A
3:50 AM50 °FCool.1 mph100%30.18 "HgN/A
3:20 AM52 °FCool.1 mph100%30.15 "HgN/A
2:50 AM52 °FCool.No wind100%30.15 "HgN/A
2:20 AM54 °FCool.1 mph100%30.15 "HgN/A
1:50 AM54 °FCool.1 mph100%30.15 "HgN/A
1:20 AM55 °FCool.1 mph94%30.15 "HgN/A
12:50 AM55 °FCool.1 mph94%30.15 "HgN/A
12:20 AM55 °FCool.3 mph100%30.15 "HgN/A
11:50 PM
Fri, Aug 28
55 °FCool.1 mph94%30.12 "HgN/A
11:20 PM57 °FFog.No wind94%30.12 "HgN/A
10:50 PM59 °FPassing clouds.2 mph88%30.12 "HgN/A
10:20 PM59 °FPassing clouds.5 mph94%30.12 "HgN/A
9:50 PM57 °FPassing clouds.No wind94%30.09 "HgN/A
9:20 PM59 °FPassing clouds.1 mph88%30.09 "HgN/A
8:50 PM59 °FSprinkles. Scattered clouds.5 mph94%30.09 "HgN/A
8:20 PM59 °FSprinkles. Broken clouds.7 mph88%30.09 "HgN/A
7:50 PM61 °FSprinkles. Broken clouds.14 mph77%30.07 "HgN/A
7:20 PM64 °FPartly sunny.8 mph73%30.07 "HgN/A
6:50 PM64 °FScattered clouds.9 mph73%30.07 "HgN/A
6:20 PM64 °FPassing clouds.12 mph68%30.04 "HgN/A
5:50 PM66 °FPassing clouds.14 mph64%30.04 "HgN/A
5:20 PM66 °FScattered clouds.13 mph68%30.04 "HgN/A
4:50 PM68 °FScattered clouds.12 mph64%30.04 "HgN/A
4:20 PM66 °FScattered clouds.13 mph68%30.04 "HgN/A
3:50 PM66 °FScattered clouds.12 mph68%30.04 "HgN/A
3:20 PM66 °FScattered clouds.10 mph64%30.04 "HgN/A
2:50 PM66 °FScattered clouds.12 mph68%30.04 "HgN/A
2:20 PM66 °FScattered clouds.12 mph68%30.04 "HgN/A
1:50 PM64 °FScattered clouds.13 mph68%30.04 "HgN/A
1:20 PM64 °FScattered clouds.13 mph73%30.01 "HgN/A
12:50 PM64 °FBroken clouds.13 mph73%30.01 "HgN/A
12:20 PM63 °FBroken clouds.7 mph77%30.01 "HgN/A
11:50 AM63 °FBroken clouds.9 mph77%30.01 "HgN/A
11:20 AM63 °FScattered clouds.8 mph83%30.01 "HgN/A
10:50 AM61 °FBroken clouds.9 mph83%29.98 "HgN/A
10:20 AM61 °FBroken clouds.8 mph83%29.98 "HgN/A
9:50 AM59 °FBroken clouds.9 mph88%29.98 "HgN/A
9:20 AM59 °FBroken clouds.9 mph88%29.95 "Hg5 mi
8:50 AM59 °FBroken clouds.8 mph88%29.95 "Hg5 mi
8:20 AM59 °FBroken clouds.9 mph88%29.95 "Hg5 mi
Weather by CustomWeather, © 2015

See weather overviewHow to use our weather pages